Location: Unspecified
(0.0000°N, 0.0000°E)
Time: 10:09:46
(UTC+00:00)

Vanguard 1 Rocket - All Passes

Search period start: 30 July 2015 00:00
Search period end: 09 August 2015 00:00
Orbit: 652 x 4226 km, 34.3° (Epoch: 27 July)

Date Brightness Start Highest point End Pass type
(mag) Time Alt. Az. Time Alt. Az. Time Alt. Az.
30 Jul - 01:34:59 10° WNW 01:50:19 24° N 02:08:54 10° NE visible
30 Jul - 04:13:21 10° NW 04:32:07 24° N 04:49:00 10° ENE visible
30 Jul - 06:47:57 10° NW 07:10:01 45° NNE 07:23:21 10° E daylight
30 Jul - 09:22:11 10° WNW 09:40:37 74° SW 09:49:38 10° SE daylight
30 Jul - 12:02:11 10° WSW 12:06:43 13° SW 12:09:46 10° SSW daylight
30 Jul - 19:27:01 10° SSW 19:33:02 35° SE 19:43:44 10° ENE visible
30 Jul - 21:50:32 10° WSW 21:59:55 61° NNW 22:18:29 10° NE visible
31 Jul - 00:20:01 10° WNW 00:33:21 28° NNW 00:52:19 10° NE visible
31 Jul - 02:56:55 10° NW 03:13:46 22° N 03:31:28 10° NE visible
31 Jul - 05:32:32 10° NW 05:54:15 34° NNE 06:10:01 10° E visible
31 Jul - 08:06:10 10° NW 08:28:00 76° NE 08:39:07 10° ESE daylight
31 Jul - 10:43:03 10° W 10:55:23 31° SW 11:02:19 10° SSE daylight
31 Jul - 18:19:12 10° SSE 18:22:09 14° SE 18:26:22 10° ESE visible
31 Jul - 20:39:55 10° SW 20:47:33 89° SE 21:03:10 10° NE visible
31 Jul - 23:06:40 10° W 23:17:53 35° NNW 23:36:25 10° NE visible
01 Aug - 01:40:44 10° NW 01:55:29 22° N 02:13:10 10° NE visible
01 Aug - 04:17:08 10° NW 04:37:08 27° NNE 04:54:46 10° ENE visible
01 Aug - 06:50:33 10° NW 07:14:00 55° NNE 07:27:38 10° ESE daylight
01 Aug - 09:25:39 10° WNW 09:43:50 58° SW 09:52:59 10° SE daylight
01 Aug - 19:30:08 10° SSW 19:36:18 49° SE 19:47:48 10° ENE visible
01 Aug - 21:54:39 10° W 22:03:50 47° NNW 22:21:06 10° NE visible
02 Aug - 00:25:30 10° WNW 00:38:13 24° N 00:55:29 10° NE visible
02 Aug - 03:01:41 10° NW 03:19:02 23° N 03:37:19 10° NE visible
02 Aug - 05:35:20 10° NW 05:58:36 42° NNE 06:14:51 10° E visible
02 Aug - 08:09:04 10° NW 08:31:25 88° SW 08:42:46 10° SE daylight
02 Aug - 10:48:01 10° W 10:58:42 23° SW 11:05:04 10° S daylight
02 Aug - 18:21:21 10° S 18:25:34 21° SE 18:31:56 10° E visible
02 Aug - 20:43:40 10° WSW 20:51:08 69° NNW 21:06:10 10° NE visible
02 Aug - 23:11:38 10° WNW 23:22:23 28° NNW 23:39:01 10° NE visible
03 Aug - 01:46:16 10° NW 02:00:46 21° N 02:18:11 10° NE visible
03 Aug - 04:20:27 10° NW 04:41:52 32° NNE 05:00:16 10° E visible
03 Aug - 06:53:13 10° NW 07:17:44 68° NNE 07:31:38 10° ESE daylight
03 Aug - 09:29:30 10° WNW 09:47:00 45° SW 09:56:10 10° SSE daylight
03 Aug - 19:33:30 10° SW 19:39:37 71° SE 19:51:26 10° ENE visible
03 Aug - 21:59:07 10° W 22:08:01 36° NNW 22:23:35 10° NE visible
04 Aug - 00:31:12 10° NW 00:43:15 20° N 00:59:11 10° NE visible
04 Aug - 03:05:48 10° NNW 03:24:08 25° NNE 03:43:19 10° ENE visible
04 Aug - 05:38:02 10° NW 06:02:40 50° NNE 06:19:20 10° ESE visible
04 Aug - 08:12:14 10° WNW 08:34:40 72° SW 08:46:13 10° SE daylight
04 Aug - 10:53:46 10° WSW 11:02:12 17° SW 11:07:29 10° S daylight
04 Aug - 18:24:07 10° SSW 18:28:54 32° SE 18:36:34 10° ENE visible
04 Aug - 20:47:40 10° WSW 20:54:58 50° NNW 21:08:55 10° NE visible
04 Aug - 23:17:00 10° WNW 23:27:06 23° N 23:41:45 10° NNE visible
05 Aug - 01:51:18 10° NW 02:06:02 21° N 02:23:56 10° NE visible
05 Aug - 04:23:28 10° NW 04:46:18 38° NNE 05:05:23 10° E visible
05 Aug - 06:56:00 10° NW 07:21:12 82° NE 07:35:22 10° ESE daylight
05 Aug - 09:33:51 10° WNW 09:50:11 35° SW 09:59:10 10° SSE daylight
05 Aug - 17:16:49 10° SSE 17:18:12 11° SE 17:20:06 10° ESE daylight
05 Aug - 19:37:05 10° WSW 19:43:06 81° NW 19:54:43 10° NE visible
05 Aug - 22:03:56 10° WNW 22:12:25 27° NNW 22:26:00 10° NNE visible
06 Aug - 00:36:52 10° NW 00:48:25 19° N 01:03:36 10° NE visible
06 Aug - 03:09:24 10° NNW 03:28:58 29° NNE 03:49:09 10° ENE visible
06 Aug - 05:40:44 10° NW 06:06:26 61° NNE 06:23:28 10° ESE visible
06 Aug - 08:15:43 10° WNW 08:37:47 58° SW 08:49:30 10° SE daylight
06 Aug - 11:00:49 10° WSW 11:05:55 12° SW 11:09:10 10° SSW daylight
06 Aug - 18:27:14 10° SW 18:32:14 49° SE 18:40:38 10° ENE visible
06 Aug - 20:51:59 10° W 20:59:02 36° NNW 21:11:29 10° NE visible
06 Aug - 23:22:42 10° NW 23:32:00 19° N 23:44:46 10° NNE visible
07 Aug - 01:55:41 10° NNW 02:11:10 23° NNE 02:30:06 10° ENE visible
07 Aug - 04:26:19 10° NW 04:50:25 46° NNE 05:10:05 10° E visible
07 Aug - 06:58:59 10° NW 07:24:28 84° SW 07:38:54 10° SE daylight
07 Aug - 09:38:48 10° W 09:53:32 27° SW 10:02:02 10° SSE daylight
07 Aug - 17:18:23 10° S 17:21:42 19° SE 17:26:06 10° E daylight
07 Aug - 19:40:56 10° WSW 19:46:50 55° NNW 19:57:42 10° NE visible
07 Aug - 22:09:14 10° WNW 22:17:00 21° NNW 22:28:23 10° NNE visible
08 Aug - 00:42:08 10° NNW 00:53:37 18° N 01:08:56 10° NE visible
08 Aug - 03:12:37 10° NNW 03:33:28 34° NNE 03:54:37 10° E visible
08 Aug - 05:43:30 10° NW 06:09:56 73° NE 06:27:19 10° ESE visible
08 Aug - 08:19:36 10° WNW 08:40:54 47° SW 08:52:37 10° SSE daylight
08 Aug - 18:30:39 10° SW 18:35:40 78° SE 18:44:16 10° ENE visible
08 Aug - 20:56:42 10° WNW 21:03:19 26° NNW 21:13:51 10° NNE visible
08 Aug - 23:28:34 10° NW 23:37:02 16° N 23:48:22 10° NNE visible
